Location: Bazinghen
(50.8246°N, 1.6616°E)
Time: 13:04:21
(UTC+00:00)

Cosmos 1605 Rocket - Pass Details

Date: 09 April 2020
Orbit: 946 x 1005 km, 82.9° (Epoch: 27 May)

Event Time Altitude Azimuth Distance (km) Brightness Sun altitude
Rises 22:20:16 0° 349° (N) 3,642 8.1 -27.7°
Reaches altitude 10° 22:22:45 10° 349° (N) 2,698 7.2 -27.9°
Maximum altitude 22:28:56 85° 262° (W) 976 3.9 -28.3°
Enters shadow 22:29:21 78° 198° (SSW) 992 3.8 -28.3°
